Hoquiam, WA

4:01 AM PST on January 24, 2018 (GMT -0800)
Bowerman

Weather History for KHQM - January, 2013

Change the Weather History Date:

Sunday, January 20, 2013

  Actual Average Record
Temperature  
Mean Temperature 39 °F 43 °F  
Max Temperature 45 °F 48 °F 63 °F (1961)
Min Temperature 33 °F 38 °F 21 °F (1962)
Degree Days  
Heating Degree Days 26 22  
Month to date heating degree days 451  
Cooling Degree Days 0 0  
Month to date cooling degree days 0  
Year to date cooling degree days 0  
Moisture  
Dew Point 34 °F    
Average Humidity 90    
Maximum Humidity 96    
Minimum Humidity 76    
Precipitation  
Precipitation 0.01 in 0.33 in 1.85 in (1968)
Month to date precipitation 7.01  
Year to date precipitation 7.01  
Sea Level Pressure  
Sea Level Pressure 30.30 in    
Wind  
Wind Speed 8 mph (ENE)    
Max Wind Speed 16 mph    
Max Gust Speed -    
Visibility 9 miles    
Events      
T = Trace of Precipitation, MM = Missing Value Source: NWS Daily Summary

Daily Weather History Graph

Daily Weather History Graph

Search for Another Location

Airport or City:

Trip Planner

Search our weather history database for the weather conditions in past years. The results will help you decide how hot, cold, wet, or windy it might be!

Date:

Astronomy

Jan. 20, 2013 Rise Set
Actual Time 7:52 AM PST 5:01 PM PST
Civil Twilight 7:19 AM PST 5:35 PM PST
Nautical Twilight 6:41 AM PST 6:12 PM PST
Astronomical Twilight 6:05 AM PST 6:48 PM PST
Moon 12:06 PM PST (1/20) 2:28 AM PST (1/20)
Length of Visible Light 10h 15m
Length of Day
9h 08m
Waxing Gibbous, 67% of the Moon is Illuminated
Jan 20
Waxing Gibbous
Jan 26
Full
Feb 3
Last Quarter
Feb 9
New
Feb 17
First Quarter

Hourly Weather History & Observations

Time (PST) Temp. Windchill Dew Point Humidity Pressure Visibility Wind Dir Wind Speed Gust Speed Precip Events Conditions
12:18 AM 33.8 °F 29.6 °F 32.0 °F 93% 30.33 in 9.0 mi ENE 4.6 mph - N/A   Partly Cloudy
12:53 AM 33.1 °F 26.1 °F 32.0 °F 96% 30.34 in 7.0 mi ENE 8.1 mph - N/A   Clear
1:02 AM 33.8 °F 29.6 °F 32.0 °F 93% 30.34 in 7.0 mi NE 4.6 mph - N/A   Partly Cloudy
1:16 AM 33.8 °F 28.6 °F 32.0 °F 93% 30.34 in 8.0 mi NE 5.8 mph - N/A   Mostly Cloudy
1:53 AM 34.0 °F 27.2 °F 33.1 °F 96% 30.35 in 10.0 mi ENE 8.1 mph - 0.01 in   Overcast
2:53 AM 34.0 °F 27.2 °F 33.1 °F 96% 30.35 in 9.0 mi NE 8.1 mph - N/A   Overcast
3:53 AM 35.1 °F 27.9 °F 33.1 °F 92% 30.34 in 10.0 mi NE 9.2 mph - N/A   Overcast
4:53 AM 35.1 °F 28.6 °F 33.1 °F 92% 30.33 in 10.0 mi NE 8.1 mph - N/A   Overcast
5:53 AM 35.1 °F 27.4 °F 33.1 °F 92% 30.33 in 10.0 mi NE 10.4 mph - N/A   Overcast
6:53 AM 35.1 °F 27.9 °F 33.1 °F 92% 30.32 in 10.0 mi NE 9.2 mph - N/A   Overcast
7:53 AM 35.1 °F 28.6 °F 33.1 °F 92% 30.33 in 10.0 mi NE 8.1 mph - N/A   Overcast
8:53 AM 35.1 °F 29.3 °F 34.0 °F 96% 30.34 in 7.0 mi ENE 6.9 mph - N/A   Overcast
9:53 AM 37.0 °F 31.0 °F 35.1 °F 93% 30.35 in 9.0 mi ENE 8.1 mph - N/A   Overcast
10:50 AM 37.4 °F 28.9 °F 35.6 °F 93% 30.33 in 8.0 mi ENE 13.8 mph - N/A   Scattered Clouds
10:53 AM 37.9 °F 29.6 °F 35.1 °F 89% 30.34 in 8.0 mi ENE 13.8 mph - N/A   Partly Cloudy
11:53 AM 41.0 °F 32.8 °F 36.0 °F 82% 30.31 in 10.0 mi East 16.1 mph - N/A   Clear
12:53 PM 44.1 °F 37.7 °F 37.0 °F 76% 30.28 in 10.0 mi East 12.7 mph - N/A   Clear
1:53 PM 45.0 °F 38.5 °F 37.9 °F 76% 30.26 in 10.0 mi East 13.8 mph - N/A   Clear
2:53 PM 45.0 °F 38.5 °F 37.9 °F 76% 30.26 in 10.0 mi East 13.8 mph - N/A   Clear
3:53 PM 44.1 °F 38.1 °F 37.0 °F 76% 30.26 in 10.0 mi East 11.5 mph - N/A   Clear
4:53 PM 41.0 °F 34.7 °F 36.0 °F 82% 30.25 in 10.0 mi ENE 10.4 mph - N/A   Clear
5:53 PM 37.9 °F 30.5 °F 35.1 °F 89% 30.24 in 10.0 mi ENE 11.5 mph - N/A   Clear
6:53 PM 36.0 °F 27.5 °F 34.0 °F 93% 30.24 in 8.0 mi ENE 12.7 mph - N/A   Clear
7:53 PM 35.1 °F 28.6 °F 33.1 °F 92% 30.25 in 8.0 mi ENE 8.1 mph - N/A   Clear
8:53 PM 35.1 °F 28.6 °F 33.1 °F 92% 30.25 in 9.0 mi NE 8.1 mph - N/A   Clear
9:53 PM 34.0 °F 28.8 °F 32.0 °F 92% 30.25 in 7.0 mi NE 5.8 mph - N/A   Clear
10:53 PM 33.1 °F 26.9 °F 32.0 °F 96% 30.24 in 7.0 mi East 6.9 mph - N/A   Clear
11:53 PM 33.1 °F 26.1 °F 32.0 °F 96% 30.25 in 8.0 mi ENE 8.1 mph - N/A   Clear